TimeEDT,TemperatureF,Dew PointF,Humidity,Sea Level PressureIn,VisibilityMPH,Wind Direction,Wind SpeedMPH,Gust SpeedMPH,PrecipitationIn,Events,Conditions,WindDirDegrees,DateUTC
12:15 AM,59.0,46.4,63,30.23,10.0,Calm,Calm,-,N/A,,Clear,0,2013-05-26 04:15:00
12:35 AM,55.4,46.4,72,30.22,10.0,Calm,Calm,-,N/A,,Clear,0,2013-05-26 04:35:00
12:55 AM,57.2,46.4,67,30.22,10.0,Calm,Calm,-,N/A,,Clear,0,2013-05-26 04:55:00
1:15 AM,55.4,46.4,72,30.20,10.0,Calm,Calm,-,N/A,,Clear,0,2013-05-26 05:15:00
1:35 AM,53.6,46.4,77,30.22,10.0,Calm,Calm,-,N/A,,Clear,0,2013-05-26 05:35:00
1:55 AM,55.4,46.4,72,30.21,10.0,Calm,Calm,-,N/A,,Clear,0,2013-05-26 05:55:00
2:15 AM,55.4,46.4,72,30.21,10.0,Calm,Calm,-,N/A,,Clear,0,2013-05-26 06:15:00
2:35 AM,55.4,46.4,72,30.21,10.0,Calm,Calm,-,N/A,,Clear,0,2013-05-26 06:35:00
2:55 AM,55.4,46.4,72,30.20,10.0,Calm,Calm,-,N/A,,Clear,0,2013-05-26 06:55:00
3:15 AM,53.6,46.4,77,30.21,10.0,Calm,Calm,-,N/A,,Clear,0,2013-05-26 07:15:00
3:35 AM,53.6,46.4,77,30.21,10.0,Calm,Calm,-,N/A,,Clear,0,2013-05-26 07:35:00
3:55 AM,53.6,46.4,77,30.20,10.0,Calm,Calm,-,N/A,,Clear,0,2013-05-26 07:55:00
4:15 AM,53.6,46.4,77,30.20,10.0,Calm,Calm,-,N/A,,Clear,0,2013-05-26 08:15:00
4:35 AM,53.6,46.4,77,30.20,10.0,Calm,Calm,-,N/A,,Clear,0,2013-05-26 08:35:00
4:55 AM,53.6,46.4,77,30.21,10.0,East,3.5,-,N/A,,Clear,80,2013-05-26 08:55:00
5:15 AM,51.8,46.4,82,30.22,10.0,NE,3.5,-,N/A,,Clear,40,2013-05-26 09:15:00
5:35 AM,51.8,51.8,100,30.23,10.0,NE,4.6,-,N/A,,Clear,40,2013-05-26 09:35:00
5:55 AM,51.8,51.8,100,30.23,10.0,Calm,Calm,-,N/A,,Clear,0,2013-05-26 09:55:00
6:15 AM,51.8,50.0,94,30.24,10.0,Calm,Calm,-,N/A,,Clear,0,2013-05-26 10:15:00
6:35 AM,51.8,50.0,94,30.25,10.0,Calm,Calm,-,N/A,,Clear,0,2013-05-26 10:35:00
6:55 AM,53.6,48.2,82,30.26,10.0,Calm,Calm,-,N/A,,Clear,0,2013-05-26 10:55:00
7:15 AM,53.6,46.4,77,30.27,10.0,Calm,Calm,-,N/A,,Clear,0,2013-05-26 11:15:00
7:35 AM,55.4,50.0,82,30.27,10.0,Calm,Calm,-,N/A,,Clear,0,2013-05-26 11:35:00
7:55 AM,59.0,48.2,67,30.28,10.0,NNE,8.1,-,N/A,,Clear,30,2013-05-26 11:55:00
8:15 AM,60.8,48.2,63,30.29,10.0,ENE,9.2,-,N/A,,Clear,60,2013-05-26 12:15:00
8:35 AM,60.8,46.4,59,30.30,10.0,ENE,8.1,-,N/A,,Clear,60,2013-05-26 12:35:00
8:55 AM,62.6,44.6,52,30.31,10.0,NE,9.2,-,N/A,,Clear,50,2013-05-26 12:55:00
9:15 AM,64.4,42.8,45,30.31,10.0,ENE,10.4,-,N/A,,Clear,70,2013-05-26 13:15:00
9:35 AM,66.2,42.8,43,30.31,10.0,East,9.2,-,N/A,,Clear,80,2013-05-26 13:35:00
9:55 AM,68.0,42.8,40,30.30,10.0,ENE,6.9,-,N/A,,Clear,70,2013-05-26 13:55:00
10:15 AM,69.8,42.8,38,30.31,10.0,NE,11.5,-,N/A,,Clear,50,2013-05-26 14:15:00
10:35 AM,69.8,42.8,38,30.30,10.0,East,9.2,-,N/A,,Clear,80,2013-05-26 14:35:00
10:55 AM,69.8,41.0,35,30.30,10.0,ESE,4.6,-,N/A,,Clear,120,2013-05-26 14:55:00
11:15 AM,71.6,42.8,35,30.29,10.0,ESE,4.6,-,N/A,,Clear,120,2013-05-26 15:15:00
11:35 AM,71.6,41.0,33,30.28,10.0,Calm,Calm,-,N/A,,Clear,0,2013-05-26 15:35:00
11:55 AM,75.2,42.8,31,30.28,10.0,SE,4.6,-,N/A,,Clear,130,2013-05-26 15:55:00
12:15 PM,75.2,42.8,31,30.27,10.0,East,3.5,-,N/A,,Clear,80,2013-05-26 16:15:00
12:35 PM,77.0,41.0,28,30.28,10.0,Calm,Calm,-,N/A,,Clear,0,2013-05-26 16:35:00
12:55 PM,77.0,42.8,29,30.27,10.0,Calm,Calm,-,N/A,,Clear,0,2013-05-26 16:55:00
1:15 PM,78.8,42.8,28,30.28,10.0,NE,3.5,-,N/A,,Clear,40,2013-05-26 17:15:00
1:35 PM,78.8,42.8,28,30.26,10.0,North,4.6,-,N/A,,Clear,360,2013-05-26 17:35:00
1:55 PM,78.8,42.8,28,30.26,10.0,Calm,Calm,-,N/A,,Clear,0,2013-05-26 17:55:00
2:15 PM,78.8,42.8,28,30.26,10.0,NNE,5.8,-,N/A,,Clear,30,2013-05-26 18:15:00
2:35 PM,80.6,42.8,26,30.25,10.0,NNE,4.6,-,N/A,,Clear,20,2013-05-26 18:35:00
2:55 PM,80.6,42.8,26,30.24,10.0,North,5.8,-,N/A,,Clear,350,2013-05-26 18:55:00
3:15 PM,80.6,42.8,26,30.23,10.0,NNW,8.1,-,N/A,,Scattered Clouds,330,2013-05-26 19:15:00
3:35 PM,82.4,42.8,25,30.23,10.0,WNW,5.8,-,N/A,,Scattered Clouds,290,2013-05-26 19:35:00
3:55 PM,80.6,42.8,26,30.22,10.0,NW,8.1,-,N/A,,Clear,320,2013-05-26 19:55:00
4:15 PM,80.6,42.8,26,30.21,10.0,North,3.5,-,N/A,,Clear,360,2013-05-26 20:15:00
4:35 PM,80.6,42.8,26,30.21,10.0,WSW,3.5,-,N/A,,Clear,250,2013-05-26 20:35:00
4:55 PM,80.6,42.8,26,30.21,10.0,NNW,4.6,-,N/A,,Clear,340,2013-05-26 20:55:00
5:15 PM,80.6,41.0,24,30.21,10.0,NNE,6.9,-,N/A,,Clear,20,2013-05-26 21:15:00
5:35 PM,82.4,41.0,23,30.21,10.0,NW,6.9,-,N/A,,Clear,320,2013-05-26 21:35:00
5:55 PM,80.6,41.0,24,30.22,10.0,NNW,5.8,-,N/A,,Clear,340,2013-05-26 21:55:00
6:15 PM,80.6,41.0,24,30.21,10.0,North,6.9,-,N/A,,Clear,10,2013-05-26 22:15:00
6:35 PM,80.6,42.8,26,30.21,10.0,NW,5.8,-,N/A,,Clear,310,2013-05-26 22:35:00
6:55 PM,78.8,42.8,28,30.21,10.0,North,8.1,-,N/A,,Clear,350,2013-05-26 22:55:00
7:15 PM,78.8,44.6,30,30.21,10.0,North,5.8,-,N/A,,Clear,350,2013-05-26 23:15:00
7:35 PM,77.0,46.4,34,30.21,10.0,North,4.6,-,N/A,,Clear,360,2013-05-26 23:35:00
7:55 PM,75.2,46.4,36,30.21,10.0,NNE,4.6,-,N/A,,Clear,20,2013-05-26 23:55:00
8:15 PM,73.4,50.0,44,30.22,10.0,NE,3.5,-,N/A,,Clear,40,2013-05-27 00:15:00
8:35 PM,71.6,50.0,46,30.23,10.0,NNE,4.6,-,N/A,,Clear,30,2013-05-27 00:35:00
8:55 PM,69.8,50.0,49,30.22,10.0,NE,4.6,-,N/A,,Clear,50,2013-05-27 00:55:00
9:15 PM,69.8,50.0,49,30.23,10.0,ENE,3.5,-,N/A,,Clear,70,2013-05-27 01:15:00
9:35 PM,66.2,51.8,60,30.23,10.0,ENE,4.6,-,N/A,,Clear,70,2013-05-27 01:35:00
9:55 PM,66.2,51.8,60,30.23,10.0,East,3.5,-,N/A,,Clear,80,2013-05-27 01:55:00
10:15 PM,68.0,50.0,52,30.24,10.0,ENE,4.6,-,N/A,,Clear,70,2013-05-27 02:15:00
10:35 PM,62.6,51.8,68,30.24,10.0,ENE,4.6,-,N/A,,Clear,70,2013-05-27 02:35:00
10:55 PM,64.4,50.0,59,30.25,10.0,East,4.6,-,N/A,,Clear,80,2013-05-27 02:55:00
11:15 PM,64.4,48.2,56,30.25,10.0,East,5.8,-,N/A,,Clear,90,2013-05-27 03:15:00
11:35 PM,66.2,46.4,49,30.25,10.0,East,4.6,-,N/A,,Clear,100,2013-05-27 03:35:00
11:55 PM,64.4,48.2,56,30.25,10.0,ESE,4.6,-,N/A,,Clear,110,2013-05-27 03:55:00